P/2024 T1 ( Rankin )

Japanese version
Home page
Updated on January 26, 2025

---------------------------------------------------------------------

* Profile

Discovery Date October 2, 2024
Magnitude 19.8 mag
Discoverer David Rankin (Mt. Lemmon Survey)

* Pictures

* Orbital Elements

Epoch 2024 Oct. 17.0 TT = JDT 2460600.5
T 2024 Sept. 30.49651 TT                                Rudenko
q   2.2869613            (2000.0)            P               Q
n   0.05813214     Peri.  164.89789     +0.08197525     -0.95092916
a   6.5997150      Node   279.70707     +0.88015766     +0.20951278
e   0.6534758      Incl.   17.61897     +0.46754952     -0.22767988
P  17.0
From 80 observations 2024 Sept. 9-Nov. 14, mean residual 0".5.

* Magnitudes Graph

        m1 = 13.5 + 5 log d + 10.0 log r

---------------------------------------------------------------------

The orbital elements are published on M.P.E.C. 2024-V192.
The magnitudes graphs are made with Comet for Windows.

---------------------------------------------------------------------

Copyright(C) Seiichi Yoshida (comet@aerith.net). All rights reserved.